Land O' Lakes, WI

6:12 AM CDT on May 27, 2017 (GMT -0500)
Kings Land O'Lakes

Weather History for KLNL - April, 2013

Change the Weather History Date:

Thursday, April 4, 2013

  Actual Average (KEGV) Record (KEGV)
Temperature  
Mean Temperature 36 °F -  
Max Temperature 42 °F 48 °F 68 °F (1997)
Min Temperature 30 °F 25 °F 1 °F (1999)
Degree Days  
Heating Degree Days 29    
Moisture  
Dew Point 21 °F    
Average Humidity 55    
Maximum Humidity 80    
Minimum Humidity 36    
Precipitation  
Precipitation 0.00 in - - ()
Sea Level Pressure  
Sea Level Pressure 29.97 in    
Wind  
Wind Speed 9 mph (WNW)    
Max Wind Speed 16 mph    
Max Gust Speed 26 mph    
Visibility 10 miles    
Events Snow    
Averages and records for this station are not official NWS values.
T = Trace of Precipitation, MM = Missing Value Source: NWS Daily Summary

Daily Weather History Graph

Daily Weather History Graph

Search for Another Location

Airport or City:

Trip Planner

Search our weather history database for the weather conditions in past years. The results will help you decide how hot, cold, wet, or windy it might be!

Date:

Astronomy

Apr. 04, 2013 Rise Set
Actual Time 6:30 AM CDT 7:29 PM CDT
Civil Twilight 5:59 AM CDT 8:00 PM CDT
Nautical Twilight 5:23 AM CDT 8:37 PM CDT
Astronomical Twilight 4:45 AM CDT 9:15 PM CDT
Moon 3:15 AM CDT (4/4) 1:30 PM CDT (4/4)
Length of Visible Light 14h 00m
Length of Day
12h 59m
Waning Crescent, 33% of the Moon is Illuminated
Apr 4
Waning Crescent
Apr 10
New
Apr 18
First Quarter
Apr 25
Full
May 2
Last Quarter

Hourly Weather History & Observations

Time (CDT) Temp. Windchill Dew Point Humidity Pressure Visibility Wind Dir Wind Speed Gust Speed Precip Events Conditions
12:15 AM 32.0 °F 24.2 °F 14.0 °F 48% 30.04 in 10.0 mi SW 9.2 mph 17.3 mph N/A   Mostly Cloudy
12:35 AM 33.8 °F 25.8 °F 15.8 °F 48% 30.03 in 10.0 mi SW 10.4 mph 17.3 mph N/A   Scattered Clouds
12:55 AM 33.8 °F 25.8 °F 17.6 °F 52% 30.03 in 10.0 mi SW 10.4 mph 18.4 mph N/A   Clear
1:15 AM 33.8 °F 25.8 °F 17.6 °F 52% 30.02 in 10.0 mi SSW 10.4 mph 23.0 mph N/A   Scattered Clouds
1:35 AM 33.8 °F 26.4 °F 17.6 °F 52% 30.01 in 10.0 mi SSW 9.2 mph 16.1 mph N/A   Mostly Cloudy
1:55 AM 33.8 °F 27.0 °F 17.6 °F 52% 30.01 in 10.0 mi SW 8.1 mph 17.3 mph N/A   Overcast
2:15 AM 33.8 °F 26.4 °F 19.4 °F 56% 30.00 in 10.0 mi SW 9.2 mph - N/A   Mostly Cloudy
2:35 AM 33.8 °F 25.8 °F 19.4 °F 56% 29.99 in 10.0 mi SW 10.4 mph - N/A   Overcast
2:55 AM 33.8 °F 24.3 °F 21.2 °F 60% 29.97 in 7.0 mi SSW 13.8 mph 19.6 mph N/A Snow Light Snow
3:15 AM 32.0 °F 23.0 °F 26.6 °F 80% 29.96 in 7.0 mi SW 11.5 mph 17.3 mph N/A   Overcast
3:35 AM 32.0 °F 24.2 °F 24.8 °F 75% 29.95 in 10.0 mi SSW 9.2 mph 18.4 mph N/A   Overcast
3:55 AM 33.8 °F 25.8 °F 23.0 °F 65% 29.95 in 10.0 mi SW 10.4 mph - N/A   Overcast
4:15 AM 33.8 °F 25.3 °F 23.0 °F 65% 29.95 in 10.0 mi SW 11.5 mph - N/A   Overcast
4:35 AM 33.8 °F 26.4 °F 23.0 °F 65% 29.94 in 10.0 mi SW 9.2 mph 17.3 mph N/A   Overcast
4:55 AM 33.8 °F 26.4 °F 23.0 °F 65% 29.93 in 10.0 mi SW 9.2 mph - N/A   Overcast
5:15 AM 33.8 °F 27.7 °F 23.0 °F 65% 29.93 in 10.0 mi SW 6.9 mph - N/A   Overcast
5:35 AM 33.8 °F 28.6 °F 23.0 °F 65% 29.93 in 10.0 mi WSW 5.8 mph - N/A   Overcast
5:55 AM 33.8 °F 27.7 °F 23.0 °F 65% 29.93 in 10.0 mi SW 6.9 mph - N/A   Overcast
6:15 AM 33.8 °F 30.8 °F 23.0 °F 65% 29.93 in 10.0 mi SW 3.5 mph - N/A   Scattered Clouds
6:35 AM 35.6 °F 29.2 °F 24.8 °F 65% 29.93 in 10.0 mi WSW 8.1 mph 16.1 mph N/A   Mostly Cloudy
6:55 AM 35.6 °F 29.9 °F 24.8 °F 65% 29.93 in 10.0 mi WSW 6.9 mph - N/A   Overcast
7:15 AM 35.6 °F 29.2 °F 24.8 °F 65% 29.93 in 10.0 mi WSW 8.1 mph - N/A   Overcast
7:35 AM 37.4 °F 32.8 °F 24.8 °F 60% 29.93 in 10.0 mi WSW 5.8 mph - N/A   Overcast
7:55 AM 37.4 °F 32.8 °F 26.6 °F 65% 29.93 in 10.0 mi WSW 5.8 mph - N/A   Overcast
8:15 AM 37.4 °F 32.8 °F 26.6 °F 65% 29.93 in 10.0 mi West 5.8 mph - N/A   Overcast
8:35 AM 37.4 °F 30.3 °F 26.6 °F 65% 29.92 in 10.0 mi West 10.4 mph 16.1 mph N/A   Overcast
8:55 AM 37.4 °F 32.1 °F 26.6 °F 65% 29.92 in 10.0 mi West 6.9 mph - N/A   Overcast
9:15 AM 37.4 °F 33.8 °F 26.6 °F 65% 29.91 in 10.0 mi West 4.6 mph - N/A   Overcast
9:35 AM 39.2 °F 32.0 °F 28.4 °F 65% 29.91 in 10.0 mi West 11.5 mph - N/A   Overcast
9:55 AM 39.2 °F 32.5 °F 28.4 °F 65% 29.91 in 10.0 mi West 10.4 mph 17.3 mph N/A   Overcast
10:15 AM 41.0 °F 34.3 °F 28.4 °F 61% 29.91 in 10.0 mi WNW 11.5 mph 18.4 mph N/A   Overcast
10:35 AM 41.0 °F 34.3 °F 28.4 °F 61% 29.92 in 10.0 mi West 11.5 mph 17.3 mph N/A   Overcast
10:55 AM 41.0 °F 35.2 °F 28.4 °F 61% 29.92 in 10.0 mi WNW 9.2 mph 17.3 mph N/A   Overcast
11:55 AM 41.0 °F 35.8 °F 26.6 °F 57% 29.93 in 10.0 mi WNW 8.1 mph 23.0 mph N/A   Mostly Cloudy
12:15 PM 42.8 °F 37.0 °F 26.6 °F 53% 29.93 in 10.0 mi WNW 10.4 mph 18.4 mph N/A   Scattered Clouds
12:55 PM 42.8 °F 37.5 °F 23.0 °F 46% 29.92 in 10.0 mi NW 9.2 mph 16.1 mph N/A   Scattered Clouds
1:15 PM 42.8 °F 37.5 °F 21.2 °F 42% 29.92 in 10.0 mi WNW 9.2 mph 17.3 mph N/A   Scattered Clouds
1:35 PM 42.8 °F 35.8 °F 21.2 °F 42% 29.92 in 10.0 mi West 13.8 mph 19.6 mph N/A   Scattered Clouds
1:55 PM 42.8 °F 37.0 °F 19.4 °F 39% 29.92 in 10.0 mi WNW 10.4 mph 26.5 mph N/A   Scattered Clouds
2:15 PM 42.8 °F 36.2 °F 17.6 °F 36% 29.92 in 10.0 mi NW 12.7 mph 23.0 mph N/A   Clear
2:35 PM 42.8 °F 36.2 °F 17.6 °F 36% 29.93 in 10.0 mi WNW 12.7 mph 20.7 mph N/A   Clear
2:55 PM 42.8 °F 37.0 °F 17.6 °F 36% 29.93 in 10.0 mi NW 10.4 mph 25.3 mph N/A   Clear
3:15 PM 42.8 °F 36.6 °F 17.6 °F 36% 29.93 in 10.0 mi WNW 11.5 mph 20.7 mph N/A   Clear
3:35 PM 42.8 °F 35.8 °F 17.6 °F 36% 29.94 in 10.0 mi NNW 13.8 mph 20.7 mph N/A   Clear
3:55 PM 42.8 °F 36.6 °F 17.6 °F 36% 29.94 in 10.0 mi WNW 11.5 mph 17.3 mph N/A   Clear
4:15 PM 42.8 °F 36.2 °F 19.4 °F 39% 29.94 in 10.0 mi NNW 12.7 mph 20.7 mph N/A   Clear
4:35 PM 42.8 °F 35.1 °F 21.2 °F 42% 29.94 in 10.0 mi NW 16.1 mph 20.7 mph N/A   Scattered Clouds
4:55 PM 41.0 °F 35.2 °F 21.2 °F 45% 29.95 in 10.0 mi NW 9.2 mph 19.6 mph N/A   Scattered Clouds
5:15 PM 41.0 °F 34.3 °F 21.2 °F 45% 29.96 in 10.0 mi NNW 11.5 mph 20.7 mph N/A   Clear
5:35 PM 41.0 °F 33.1 °F 19.4 °F 42% 29.96 in 10.0 mi NNW 15.0 mph 19.6 mph N/A   Clear
5:55 PM 39.2 °F 31.6 °F 19.4 °F 45% 29.97 in 10.0 mi NW 12.7 mph 19.6 mph N/A   Clear
6:15 PM 39.2 °F 32.0 °F 17.6 °F 42% 29.98 in 10.0 mi NNW 11.5 mph 21.9 mph N/A   Clear
6:35 PM 37.4 °F 30.3 °F 17.6 °F 45% 29.98 in 10.0 mi NW 10.4 mph 18.4 mph N/A   Clear
6:55 PM 37.4 °F 28.9 °F 19.4 °F 48% 29.99 in 10.0 mi NNW 13.8 mph 18.4 mph N/A   Clear
7:15 PM 35.6 °F 26.2 °F 19.4 °F 52% 29.99 in 10.0 mi NNW 15.0 mph 24.2 mph N/A   Clear
7:55 PM 33.8 °F 24.3 °F 19.4 °F 56% 30.01 in 10.0 mi NNW 13.8 mph 18.4 mph N/A   Clear
8:15 PM 33.8 °F 28.6 °F 19.4 °F 56% 30.02 in 10.0 mi NNW 5.8 mph - N/A   Clear
8:35 PM 33.8 °F 29.6 °F 19.4 °F 56% 30.03 in 10.0 mi NW 4.6 mph - N/A   Clear
8:55 PM 32.0 °F 27.5 °F 17.6 °F 55% 30.04 in 10.0 mi NW 4.6 mph - N/A   Clear
9:15 PM 32.0 °F 28.7 °F 17.6 °F 55% 30.04 in 10.0 mi NNW 3.5 mph - N/A   Clear
9:35 PM 32.0 °F 28.7 °F 19.4 °F 60% 30.05 in 10.0 mi NW 3.5 mph - N/A   Clear
9:55 PM 30.2 °F 26.7 °F 19.4 °F 64% 30.05 in 10.0 mi NW 3.5 mph - N/A   Clear
10:15 PM 32.0 °F 27.5 °F 17.6 °F 55% 30.05 in 10.0 mi NNW 4.6 mph - N/A   Clear
10:35 PM 30.2 °F 26.7 °F 17.6 °F 60% 30.05 in 10.0 mi NNW 3.5 mph - N/A   Clear
10:55 PM 30.2 °F 26.7 °F 17.6 °F 60% 30.05 in 10.0 mi NW 3.5 mph - N/A   Clear
11:15 PM 30.2 °F 23.4 °F 17.6 °F 60% 30.06 in 10.0 mi NNW 6.9 mph - N/A   Clear
11:35 PM 30.2 °F 24.3 °F 17.6 °F 60% 30.06 in 10.0 mi NNW 5.8 mph - N/A   Clear
11:55 PM 30.2 °F 24.3 °F 17.6 °F 60% 30.06 in 10.0 mi North 5.8 mph - N/A   Clear